Location: Marysville Observatory
(48.1092°N, 122.1645°W)
Time: 14:54:03
(UTC-07:00)

Amateur Radio Satellites - All Passes

Search period start: 30 September 2014 14:24
Search period end: 01 October 2014 14:24
Location: Marysville Observatory, 48.1092°N, 122.1645°W

Satellite Date Start Highest point End Downlink Frequencies (MHz)
Time Altitude Azimuth
MaSat-1 30 Sep 14:28:16 14:31:19 24° 46° (NE) 14:34:00 437.345 MHz
TMSAT-1 30 Sep 14:28:33 14:33:27 40° 66° (ENE) 14:38:22 436.925 FM
Oscar 19 30 Sep 14:29:19 14:34:10 40° 263° (W) 14:39:03 437.125 CW, 437.150 USB
ITAMSAT 1 30 Sep 14:39:11 14:44:20 70° 257° (WSW) 14:49:33 435.822 SSB
Uribyol 2 30 Sep 14:40:15 14:45:23 65° 258° (WSW) 14:50:36 436.500 FM
JAS-1B 30 Sep 14:41:24 14:48:50 60° 258° (WSW) 14:55:07 435.800 - 435.900 CW/SSB
Uosat F 30 Sep 15:08:21 15:11:45 19° 57° (ENE) 15:15:08 435.120 FM
Oscar 16 30 Sep 15:12:08 15:15:36 18° 271° (W) 15:19:06 437.025 USB, Beacon 2401.1428
Sapphire 30 Sep 15:13:16 15:13:40 10° 4° (N) 15:14:04 437.095 MHz 1200 baud AX-25 AFSK
AO-27 30 Sep 15:18:16 15:22:54 33° 264° (W) 15:27:34 436.795 MHz FM
Oscar 10/S400 30 Sep 15:22:49 15:37:13 25° 146° (SE) 15:56:08 145.825 - 145.975 CW/USB, Beacon 145.810 USB
AO-Echo 30 Sep 15:25:57 15:29:38 23° 268° (W) 15:33:21 ?
PCSat 30 Sep 15:38:35 15:40:09 11° 12° (NNE) 15:41:43 145.825 MHz
Gurwin Techsat 1B 30 Sep 15:39:15 15:44:17 43° 262° (W) 15:49:21 435.225 FM
Saudisat 1A 30 Sep 15:40:00 15:44:22 62° 312° (NW) 15:48:46 436.775 MHz
AO-7 30 Sep 15:45:28 15:53:36 63° 64° (ENE) 16:01:44 29.400 - 29.500 MHz
MaSat-1 30 Sep 16:04:47 16:07:47 27° 251° (WSW) 16:10:26 437.345 MHz
TMSAT-1 30 Sep 16:08:43 16:13:27 33° 265° (W) 16:18:13 436.925 FM
JAS-2 30 Sep 16:09:21 16:11:57 14° 51° (NE) 16:14:37 435.800 - 435.900 CW/SSB, 435.910 FM
KITSAT 1 30 Sep 16:39:55 16:46:21 27° 106° (ESE) 16:52:48 435.175 FM
Uosat F 30 Sep 16:45:00 16:49:59 73° 256° (WSW) 16:55:02 435.120 FM
OPAL 30 Sep 16:49:38 16:51:44 12° 89° (E) 16:53:49 ?
Sapphire 30 Sep 16:55:36 16:59:26 19° 30° (NNE) 17:03:15 437.095 MHz 1200 baud AX-25 AFSK
PCSat 30 Sep 17:21:05 17:25:35 26° 37° (NE) 17:30:05 145.825 MHz
Saudisat 1A 30 Sep 17:21:59 17:24:48 16° 334° (NNW) 17:27:39 436.775 MHz
AO-7 30 Sep 17:39:27 17:46:50 35° 264° (W) 17:54:17 29.400 - 29.500 MHz
JAS-2 30 Sep 17:50:53 17:56:03 78° 73° (ENE) 18:01:36 435.800 - 435.900 CW/SSB, 435.910 FM
Hamsat 30 Sep 17:54:23 17:58:41 68° 74° (ENE) 18:02:58 145.90 MHz
OPAL 30 Sep 18:26:15 18:31:25 85° 107° (ESE) 18:36:27 ?
KITSAT 1 30 Sep 18:32:50 18:40:57 81° 307° (NW) 18:49:06 435.175 FM
Sapphire 30 Sep 18:38:27 18:43:53 68° 53° (NE) 18:49:18 437.095 MHz 1200 baud AX-25 AFSK
HO-68 30 Sep 18:45:47 18:49:23 15° 43° (NE) 18:53:00 435.675 MHz FM
SO-67 30 Sep 18:50:46 18:53:56 35° 71° (ENE) 18:57:08 435.3500 MHz FM
SO-50 30 Sep 18:53:02 18:55:15 14° 109° (ESE) 18:57:29 436.795 FM
PCSat 30 Sep 19:04:09 19:09:36 77° 239° (WSW) 19:15:00 145.825 MHz
STRAND 1 30 Sep 19:27:11 19:31:52 34° 96° (E) 19:36:31 ?
Hamsat 30 Sep 19:32:51 19:35:06 14° 272° (W) 19:37:21 145.90 MHz
JAS-2 30 Sep 19:39:03 19:42:02 15° 274° (W) 19:45:06 435.800 - 435.900 CW/SSB, 435.910 FM
OPAL 30 Sep 20:06:22 20:09:38 17° 307° (NW) 20:12:52 ?
Sapphire 30 Sep 20:22:43 20:26:50 22° 252° (WSW) 20:30:56 437.095 MHz 1200 baud AX-25 AFSK
SO-67 30 Sep 20:24:49 20:27:06 17° 268° (W) 20:29:24 435.3500 MHz FM
HO-68 30 Sep 20:28:42 20:35:37 55° 65° (ENE) 20:42:34 435.675 MHz FM
SO-50 30 Sep 20:30:34 20:35:05 88° 308° (NW) 20:39:46 436.795 FM
KITSAT 1 30 Sep 20:30:35 20:37:36 31° 332° (NNW) 20:44:38 435.175 FM
UKube-1 30 Sep 20:40:44 20:44:04 22° 62° (ENE) 20:47:24 145.840 MHz, 145.915 MHz
Saudisat 1A 30 Sep 20:45:17 20:47:45 14° 23° (NNE) 20:50:13 436.775 MHz
PCSat 30 Sep 20:49:48 20:52:06 13° 258° (WSW) 20:54:24 145.825 MHz
AO-40 30 Sep 20:56:14 00:06:12 28° 195° (SSW) 04:42:32 Beacon 2401.320
UOSAT-12 30 Sep 21:01:17 21:04:52 23° 113° (ESE) 21:08:31 437.025 FM, 437.400 FM
STRAND 1 30 Sep 21:06:22 21:11:05 37° 295° (WNW) 21:15:47 ?
ZACube-1 30 Sep 21:20:01 21:23:18 20° 61° (ENE) 21:26:38 437.345 MHz
Oscar 11 30 Sep 21:46:22 21:50:42 69° 73° (ENE) 21:55:04 145.825 FM, Beacon 2401.500 USB
FUNcube-1 30 Sep 22:09:41 22:14:07 53° 71° (ENE) 22:18:37 145.950 - 145.970 MHz USB
SO-50 30 Sep 22:12:48 22:16:19 21° 330° (NNW) 22:19:55 436.795 FM
UKube-1 30 Sep 22:15:50 22:19:59 46° 260° (W) 22:24:12 145.840 MHz, 145.915 MHz
HO-68 30 Sep 22:17:13 22:23:37 35° 265° (W) 22:30:04 435.675 MHz FM
Saudisat 1A 30 Sep 22:24:04 22:28:22 48° 45° (NE) 22:32:39 436.775 MHz
KITSAT 1 30 Sep 22:29:57 22:35:54 22° 2° (N) 22:41:52 435.175 FM
UOSAT-12 30 Sep 22:40:03 22:44:39 60° 313° (NW) 22:49:22 437.025 FM, 437.400 FM
ZACube-1 30 Sep 22:54:48 22:59:18 58° 260° (W) 23:03:53 437.345 MHz
ISS 30 Sep 23:13:03 23:16:12 40° 147° (SSE) 23:19:21 145.800 FM
Oscar 11 30 Sep 23:25:04 23:27:22 14° 271° (W) 23:29:41 145.825 FM, Beacon 2401.500 USB
FUNcube-1 30 Sep 23:47:29 23:50:49 20° 269° (W) 23:54:12 145.950 - 145.970 MHz USB
SO-50 30 Sep 23:57:25 23:58:41 11° 354° (N) 23:59:56 436.795 FM
Saudisat 1A 01 Oct 00:04:04 00:07:44 26° 244° (WSW) 00:11:22 436.775 MHz
UOSAT-12 01 Oct 00:22:37 00:25:46 17° 335° (NNW) 00:28:57 437.025 FM, 437.400 FM
KITSAT 1 01 Oct 00:26:54 00:34:07 34° 31° (NNE) 00:41:17 435.175 FM
ISS 01 Oct 00:49:33 00:52:51 57° 346° (NNW) 00:56:09 145.800 FM
SO-50 01 Oct 01:38:42 01:41:18 14° 20° (NNE) 01:43:56 436.795 FM
Oscar 16 01 Oct 01:39:38 01:43:15 19° 90° (E) 01:46:50 437.025 USB, Beacon 2401.1428
AO-Echo 01 Oct 01:51:11 01:53:06 12° 87° (E) 01:55:02 ?
UOSAT-12 01 Oct 02:06:45 02:07:52 11° 360° (N) 02:08:59 437.025 FM, 437.400 FM
JAS-1B 01 Oct 02:22:00 02:26:47 27° 94° (E) 02:31:47 435.800 - 435.900 CW/SSB
RS-15 01 Oct 02:22:05 02:32:17 46° 112° (ESE) 02:42:23 29.354 - 29.394 USB, Beacon 29.352 USB
KITSAT 1 01 Oct 02:22:24 02:30:33 89° 235° (SW) 02:38:38 435.175 FM
ISS 01 Oct 02:26:39 02:29:53 45° 6° (N) 02:33:06 145.800 FM
Oscar 19 01 Oct 02:36:50 02:41:56 56° 101° (E) 02:46:57 437.125 CW, 437.150 USB
TMSAT-1 01 Oct 02:42:54 02:44:33 11° 85° (E) 02:46:12 436.925 FM
ITAMSAT 1 01 Oct 02:48:39 02:53:20 32° 96° (E) 02:58:00 435.822 SSB
Uribyol 2 01 Oct 02:49:30 02:54:17 35° 96° (E) 02:59:01 436.500 FM
Oscar 16 01 Oct 03:17:57 03:23:05 66° 289° (WNW) 03:28:10 437.025 USB, Beacon 2401.1428
SO-50 01 Oct 03:18:35 03:23:07 41° 42° (NE) 03:27:43 436.795 FM
AO-27 01 Oct 03:26:48 03:32:03 69° 103° (ESE) 03:37:15 436.795 MHz FM
AO-Echo 01 Oct 03:27:34 03:32:35 84° 104° (ESE) 03:37:45 ?
AO-7 01 Oct 03:45:09 03:49:14 14° 84° (E) 03:53:18 29.400 - 29.500 MHz
UOSAT-12 01 Oct 03:46:53 03:49:59 17° 24° (NNE) 03:53:04 437.025 FM, 437.400 FM
Gurwin Techsat 1B 01 Oct 03:51:23 03:56:39 59° 101° (E) 04:01:53 435.225 FM
ISS 01 Oct 04:03:25 04:06:45 77° 205° (SSW) 04:10:04 145.800 FM
OPAL 01 Oct 04:06:29 04:11:13 36° 62° (ENE) 04:15:57 ?
JAS-1B 01 Oct 04:12:22 04:17:49 49° 293° (WNW) 04:23:31 435.800 - 435.900 CW/SSB
Oscar 19 01 Oct 04:16:52 04:20:55 24° 300° (WNW) 04:24:57 437.125 CW, 437.150 USB
KITSAT 1 01 Oct 04:19:00 04:24:55 23° 256° (WSW) 04:30:50 435.175 FM
TMSAT-1 01 Oct 04:20:02 04:25:23 77° 104° (ESE) 04:30:41 436.925 FM
ITAMSAT 1 01 Oct 04:28:03 04:32:54 40° 294° (WNW) 04:37:45 435.822 SSB
Uribyol 2 01 Oct 04:28:59 04:33:46 37° 295° (WNW) 04:38:33 436.500 FM
RS-15 01 Oct 04:33:23 04:44:16 65° 317° (NW) 04:55:13 29.354 - 29.394 USB, Beacon 29.352 USB
Uosat F 01 Oct 04:49:30 04:53:43 26° 94° (E) 04:57:56 435.120 FM
SO-50 01 Oct 04:59:15 05:03:41 37° 241° (WSW) 05:08:09 436.795 FM
Oscar 16 01 Oct 04:59:39 05:01:29 12° 308° (NW) 05:03:19 437.025 USB, Beacon 2401.1428
AO-27 01 Oct 05:07:16 05:11:04 21° 302° (WNW) 05:14:53 436.795 MHz FM
AO-Echo 01 Oct 05:07:44 05:10:46 17° 302° (WNW) 05:13:52 ?
STRAND 1 01 Oct 05:11:17 05:13:20 12° 52° (NE) 05:15:23 ?
UOSAT-12 01 Oct 05:26:27 05:31:08 56° 46° (NE) 05:35:45 437.025 FM, 437.400 FM
Gurwin Techsat 1B 01 Oct 05:32:04 05:36:15 24° 300° (WNW) 05:40:26 435.225 FM
AO-7 01 Oct 05:35:23 05:43:40 67° 105° (ESE) 05:51:54 29.400 - 29.500 MHz
ISS 01 Oct 05:40:57 05:43:00 16° 223° (SW) 05:45:03 145.800 FM
OPAL 01 Oct 05:45:15 05:50:04 37° 261° (W) 05:54:54 ?
MaSat-1 01 Oct 05:50:17 05:54:50 41° 113° (ESE) 05:59:09 437.345 MHz
TMSAT-1 01 Oct 06:01:04 06:04:43 19° 303° (WNW) 06:08:22 436.925 FM
Uosat F 01 Oct 06:27:54 06:32:43 46° 292° (WNW) 06:37:30 435.120 FM
JAS-2 01 Oct 06:39:05 06:45:32 55° 100° (E) 06:52:44 435.800 - 435.900 CW/SSB, 435.910 FM
STRAND 1 01 Oct 06:46:33 06:51:37 70° 72° (ENE) 06:56:44 ?
RS-15 01 Oct 06:49:24 06:59:08 35° 348° (NNW) 07:09:01 29.354 - 29.394 USB, Beacon 29.352 USB
UOSAT-12 01 Oct 07:07:11 07:10:59 24° 246° (WSW) 07:14:44 437.025 FM, 437.400 FM
Hamsat 01 Oct 07:12:24 07:16:39 86° 104° (ESE) 07:20:50 145.90 MHz
MaSat-1 01 Oct 07:27:07 07:31:25 32° 310° (NW) 07:35:26 437.345 MHz
AO-7 01 Oct 07:28:43 07:36:01 36° 306° (NW) 07:43:18 29.400 - 29.500 MHz
SO-67 01 Oct 07:43:42 07:46:39 26° 95° (E) 07:49:35 435.3500 MHz FM
JAS-2 01 Oct 08:24:39 08:30:24 35° 297° (WNW) 08:36:44 435.800 - 435.900 CW/SSB, 435.910 FM
STRAND 1 01 Oct 08:27:58 08:31:20 18° 270° (W) 08:34:44 ?
Hamsat 01 Oct 08:50:17 08:51:58 12° 302° (WNW) 08:53:38 145.90 MHz
RS-15 01 Oct 09:04:59 09:15:09 40° 23° (NNE) 09:25:34 29.354 - 29.394 USB, Beacon 29.352 USB
SO-67 01 Oct 09:16:48 09:19:35 23° 293° (WNW) 09:22:21 435.3500 MHz FM
AO-7 01 Oct 09:23:55 09:26:24 12° 331° (NNW) 09:28:53 29.400 - 29.500 MHz
Sapphire 01 Oct 09:24:32 09:29:05 28° 110° (ESE) 09:33:40 437.095 MHz 1200 baud AX-25 AFSK
HO-68 01 Oct 09:39:54 09:46:36 40° 97° (E) 09:53:16 435.675 MHz FM
PCSat 01 Oct 09:49:19 09:54:28 47° 116° (ESE) 09:59:40 145.825 MHz
UKube-1 01 Oct 10:00:47 10:04:16 23° 94° (E) 10:07:44 145.840 MHz, 145.915 MHz
ZACube-1 01 Oct 10:41:09 10:44:47 23° 92° (E) 10:48:20 437.345 MHz
Oscar 11 01 Oct 11:06:30 11:10:52 86° 104° (ESE) 11:15:11 145.825 FM, Beacon 2401.500 USB
Sapphire 01 Oct 11:06:56 11:12:14 54° 310° (NW) 11:17:35 437.095 MHz 1200 baud AX-25 AFSK
RS-15 01 Oct 11:18:03 11:29:11 85° 51° (NE) 11:40:45 29.354 - 29.394 USB, Beacon 29.352 USB
HO-68 01 Oct 11:27:36 11:34:26 49° 297° (WNW) 11:41:16 435.675 MHz FM
FUNcube-1 01 Oct 11:31:32 11:36:08 69° 102° (ESE) 11:40:35 145.950 - 145.970 MHz USB
PCSat 01 Oct 11:33:04 11:38:03 36° 316° (NW) 11:43:04 145.825 MHz
UKube-1 01 Oct 11:36:30 11:40:38 42° 292° (WNW) 11:44:44 145.840 MHz, 145.915 MHz
ZACube-1 01 Oct 12:17:02 12:21:24 44° 291° (WNW) 12:25:40 437.345 MHz
Oscar 19 01 Oct 12:20:03 12:23:40 20° 58° (ENE) 12:27:18 437.125 CW, 437.150 USB
ITAMSAT 1 01 Oct 12:34:32 12:36:40 13° 52° (NE) 12:38:49 435.822 SSB
Uribyol 2 01 Oct 12:34:58 12:37:24 13° 53° (NE) 12:39:50 436.500 FM
Oscar 11 01 Oct 12:44:27 12:46:25 13° 302° (WNW) 12:48:22 145.825 FM, Beacon 2401.500 USB
Sapphire 01 Oct 12:53:29 12:56:54 17° 333° (NNW) 13:00:21 437.095 MHz 1200 baud AX-25 AFSK
Oscar 16 01 Oct 12:59:40 13:04:29 40° 66° (ENE) 13:09:18 437.025 USB, Beacon 2401.1428
AO-7 01 Oct 13:02:28 13:04:03 11° 27° (NNE) 13:05:38 29.400 - 29.500 MHz
AO-Echo 01 Oct 13:07:10 13:10:46 22° 61° (ENE) 13:14:24 ?
FUNcube-1 01 Oct 13:09:04 13:11:59 17° 301° (WNW) 13:14:52 145.950 - 145.970 MHz USB
AO-27 01 Oct 13:10:42 13:14:46 24° 60° (ENE) 13:18:52 436.795 MHz FM
JAS-1B 01 Oct 13:10:44 13:17:17 39° 64° (ENE) 13:22:58 435.800 - 435.900 CW/SSB
HO-68 01 Oct 13:17:28 13:20:31 13° 319° (NW) 13:23:34 435.675 MHz FM
PCSat 01 Oct 13:20:35 13:23:08 13° 341° (NNW) 13:25:41 145.825 MHz
RS-15 01 Oct 13:31:13 13:40:24 32° 255° (WSW) 13:49:55 29.354 - 29.394 USB, Beacon 29.352 USB
Gurwin Techsat 1B 01 Oct 13:38:05 13:42:02 22° 59° (ENE) 13:46:00 435.225 FM
Oscar 19 01 Oct 13:57:17 14:02:29 73° 257° (WSW) 14:07:42 437.125 CW, 437.150 USB
MaSat-1 01 Oct 14:02:26 14:05:07 19° 44° (NE) 14:07:33 437.345 MHz
TMSAT-1 01 Oct 14:05:53 14:10:16 27° 62° (ENE) 14:14:40 436.925 FM
ITAMSAT 1 01 Oct 14:10:06 14:15:14 69° 72° (ENE) 14:20:26 435.822 SSB
Uribyol 2 01 Oct 14:10:50 14:16:00 74° 72° (ENE) 14:21:13 436.500 FM
Saudisat 1A 01 Oct 14:13:13 14:17:11 34° 118° (ESE) 14:21:10 436.775 MHz
